Regional Weather Roundup
Issued by NWS Little Rock, AR

Home | Current Version | Previous Version | Graphics & Text | Print | Product List | Glossary On
Versions: 1 2 3 4 5 6 7 8 9 10 11 12 13 14 15 16 17 18 19 20 21 22 23 24 25 26 27 28 29 30 31 32 33 34 35 36 37 38 39 40 41 42 43 44 45 46 47 48 49 50
000
ASUS44 KLZK 271905
RWRLZK

WEATHER ROUNDUP FOR ARKANSAS
NATIONAL WEATHER SERVICE LITTLE ROCK AR
200 PM CDT WED AUG 27 2014

NOTE: "FAIR" INDICATES FEW OR NO CLOUDS BELOW 12,000 FEET WITH NO
SIGNIFICANT WEATHER AND/OR OBSTRUCTIONS TO VISIBILITY.

ARZ001-003-010-029-272000-
NORTHWEST ARKANSAS

CITY           SKY/WX    TMP DP  RH WIND       PRES   REMARKS
FAYETTEVILLE   MOSUNNY   90  66  45 N7        30.10F HX  92
FORT SMITH     MOSUNNY   93  69  45 E5        30.05F HX  98
HARRISON       PTSUNNY   93  68  43 VRB5      30.11F HX  97
BENTONVILLE    MOSUNNY   91  66  43 W5        30.12F HX  94
ROGERS         PTSUNNY   92  66  42 N6        30.11F HX  94
SILOAM SPGS      N/A     90  70  51 N6        30.11F HX  95
HIGHFILL       MOSUNNY   93  66  40 NE6       30.10F HX  96
SPRINGDALE     MOSUNNY   91  66  43 NE9       30.13F HX  94
$$

ARZ004-005-016-272000-
NORTH CENTRAL ARKANSAS

CITY           SKY/WX    TMP DP  RH WIND       PRES   REMARKS
BATESVILLE     MOSUNNY   93  70  46 NE5       30.07S HX  99
FLIPPIN        MOSUNNY   93  66  40 S7        30.08F HX  96
MTN HOME       PTSUNNY   96  65  35 VRB6      30.07F HX  98
$$

ARZ040-041-272000-
WEST CENTRAL ARKANSAS

CITY           SKY/WX    TMP DP  RH WIND       PRES   REMARKS
MENA           MOSUNNY   90  70  51 CALM      30.10F HX  95
MOUNT IDA      SUNNY     89  68  49 VRB5      30.07F HX  93
$$

ARZ009-017-025-026-028-272000-
NORTHEAST ARKANSAS

CITY           SKY/WX    TMP DP  RH WIND       PRES   REMARKS
CORNING        LGT RAIN  91  72  52 SE7       30.07F HX  98
JONESBORO      MOSUNNY   91  69  48 E5        30.07F HX  96
NEWPORT        SUNNY     93  72  50 E7        30.08F HX 100
WALNUT RIDGE   SUNNY     91  66  43 CALM      30.06S HX  94
BLYTHEVILLE    MOSUNNY   90  74  59 CALM      30.07F HX  99
$$

ARZ022-023-033-042-044-272000-
CENTRAL ARKANSAS

CITY           SKY/WX    TMP DP  RH WIND       PRES   REMARKS
LITTLE ROCK    MOSUNNY   92  69  47 VRB5      30.06F HX  97
N LITTLE ROCK  MOSUNNY   89  73  58 E5        30.06F HX  97
JACKSONVILLE   MOSUNNY   91  72  54 VRB5      30.07F HX  97
SEARCY         SUNNY     93  71  48 MISG      30.07F HX  99
HOT SPRINGS    PTSUNNY   90  69  50 SE6       30.08F HX  94
RUSSELLVILLE   SUNNY     93  71  48 CALM      30.06F HX 100
CLINTON        FAIR      91  72  52 E3        30.06F HAZE    HX  98
$$

ARZ036-272000-
EAST ARKANSAS

CITY           SKY/WX    TMP DP  RH WIND       PRES   REMARKS
WEST MEMPHIS   MOSUNNY   91  69  48 E8G21     30.05F HX  96
$$

ARZ050-053-066-070-073-272000-
SOUTHWEST ARKANSAS

CITY           SKY/WX    TMP DP  RH WIND       PRES   REMARKS
ARKADELPHIA    FAIR      93  73  52 VRB3      30.06F HX 101
CAMDEN         PTSUNNY   93  64  38 N3        30.05F HX  95
TEXARKANA      MOSUNNY   89  67  47 NE8       30.06F HX  92
EL DORADO      MOSUNNY   89  65  44 SE3       30.06F HX  91
DE QUEEN       MOSUNNY   90  69  50 E10       30.04F HX  94
$$

ARZ056-057-069-272000-
SOUTHEAST ARKANSAS

CITY           SKY/WX    TMP DP  RH WIND       PRES   REMARKS
PINE BLUFF     MOSUNNY   88  70  55 NE6       30.06F HX  93
STUTTGART      MOSUNNY   88  72  58 N6        30.08S HX  94
MONTICELLO     SUNNY     91  62  37 VRB5      30.06F HX  91

$$





USA.gov is the U.S. government's official web portal to all federal, state and local government web resources and services.